Weather History for KFFT - October, 2012

Change the Weather History Date:

Monday, October 15, 2012

  Actual Average Record
Temperature  
Mean Temperature 52 °F 56 °F  
Max Temperature 63 °F 69 °F 87 °F (1897)
Min Temperature 41 °F 44 °F 24 °F (1937)
Degree Days  
Heating Degree Days 13 9  
Month to date heating degree days 148 107  
Since 1 July heating degree days 217 161  
Cooling Degree Days 0 0  
Month to date cooling degree days 2 15  
Year to date cooling degree days 1310 1150  
Growing Degree Days 4 (Base 50)    
Moisture  
Dew Point 45 °F    
Average Humidity 70    
Maximum Humidity 97    
Minimum Humidity 43    
Precipitation  
Precipitation T in 0.11 in 1.45 in (1941)
Month to date precipitation 0.63 1.50  
Year to date precipitation 32.23 36.14  
Sea Level Pressure  
Sea Level Pressure 29.91 in    
Wind  
Wind Speed 7 mph (West)    
Max Wind Speed 15 mph    
Max Gust Speed 24 mph    
Visibility 10 miles    
Events      
T = Trace of Precipitation, MM = Missing Value Source: NWS Daily Summary

Daily Weather History Graph

Daily Weather History Graph

Search for Another Location

Airport or City:

Trip Planner

Search our weather history database for the weather conditions in past years. The results will help you decide how hot, cold, wet, or windy it might be!

Date:

Astronomy

Oct. 15, 2012 Rise Set
Actual Time 7:48 AM EDT 7:01 PM EDT
Civil Twilight 7:22 AM EDT 7:27 PM EDT
Nautical Twilight 6:51 AM EDT 7:58 PM EDT
Astronomical Twilight 6:21 AM EDT 8:28 PM EDT
Moon 7:57 AM EDT (10/15) 7:01 PM EDT (10/15)
Length of Visible Light 12h 05m
Length of Day
11h 12m
New Moon, 0% of the Moon is Illuminated
Oct 15
New Moon
Oct 21
First Quarter
Oct 29
Full
Nov 6
Last Quarter
Nov 13
New

Hourly Weather History & Observations

Time (EDT) Temp. Windchill Dew Point Humidity Pressure Visibility Wind Dir Wind Speed Gust Speed Precip Events Conditions
12:21 AM 60.8 °F - 59.0 °F 94% 29.84 in 10.0 mi SW 9.2 mph - N/A   Overcast
12:28 AM 60.8 °F - 59.0 °F 94% 29.84 in 10.0 mi WSW 6.9 mph - N/A   Overcast
12:40 AM 60.8 °F - 59.0 °F 94% 29.83 in 10.0 mi WSW 6.9 mph - N/A   Overcast
12:53 AM 61.0 °F - 59.0 °F 93% 29.82 in 10.0 mi WSW 6.9 mph - N/A   Overcast
1:08 AM 60.8 °F - 59.0 °F 94% 29.84 in 10.0 mi WSW 8.1 mph - N/A   Overcast
1:53 AM 61.0 °F - 55.9 °F 83% 29.84 in 10.0 mi West 9.2 mph 21.9 mph 0.00 in   Overcast
2:53 AM 55.0 °F - 46.9 °F 74% 29.84 in 10.0 mi West 11.5 mph 20.7 mph N/A   Clear
3:53 AM 54.0 °F - 46.0 °F 75% 29.85 in 10.0 mi West 10.4 mph 19.6 mph N/A   Clear
4:53 AM 51.1 °F - 45.0 °F 80% 29.86 in 10.0 mi West 5.8 mph - N/A   Clear
5:53 AM 48.9 °F - 45.0 °F 86% 29.88 in 10.0 mi WSW 5.8 mph - N/A   Clear
6:53 AM 48.0 °F - 45.0 °F 89% 29.89 in 10.0 mi WSW 6.9 mph - N/A   Mostly Cloudy
7:53 AM 45.0 °F 41.8 °F 43.0 °F 93% 29.89 in 9.0 mi SW 5.8 mph - N/A   Clear
8:53 AM 50.0 °F - 45.0 °F 83% 29.90 in 10.0 mi WSW 6.9 mph - N/A   Clear
9:53 AM 53.1 °F - 44.1 °F 71% 29.92 in 10.0 mi West 12.7 mph 21.9 mph N/A   Partly Cloudy
10:17 AM 53.6 °F - 44.6 °F 72% 29.94 in 10.0 mi Variable 6.9 mph 16.1 mph N/A   Mostly Cloudy
10:37 AM 53.6 °F - 44.6 °F 72% 29.94 in 10.0 mi West 9.2 mph 18.4 mph N/A   Scattered Clouds
10:53 AM 55.0 °F - 44.1 °F 67% 29.94 in 10.0 mi West 8.1 mph 16.1 mph N/A   Partly Cloudy
11:53 AM 55.9 °F - 42.1 °F 60% 29.95 in 10.0 mi NW 12.7 mph 20.7 mph N/A   Scattered Clouds
12:53 PM 59.0 °F - 43.0 °F 55% 29.96 in 10.0 mi West 10.4 mph 19.6 mph N/A   Scattered Clouds
1:53 PM 59.0 °F - 41.0 °F 51% 29.95 in 10.0 mi West 9.2 mph 20.7 mph N/A   Partly Cloudy
2:53 PM 61.0 °F - 39.9 °F 46% 29.93 in 10.0 mi WNW 10.4 mph 18.4 mph N/A   Scattered Clouds
3:53 PM 62.1 °F - 39.0 °F 43% 29.93 in 10.0 mi WNW 12.7 mph 18.4 mph N/A   Scattered Clouds
4:53 PM 63.0 °F - 39.9 °F 43% 29.93 in 10.0 mi NW 12.7 mph - N/A   Scattered Clouds
5:53 PM 61.0 °F - 39.0 °F 44% 29.94 in 10.0 mi Variable 6.9 mph - N/A   Clear
6:53 PM 57.9 °F - 37.9 °F 47% 29.95 in 10.0 mi WNW 5.8 mph - N/A   Clear
7:53 PM 55.0 °F - 39.0 °F 55% 29.95 in 10.0 mi WNW 3.5 mph - N/A   Clear
8:53 PM 48.9 °F - 39.9 °F 71% 29.97 in 10.0 mi Calm Calm - N/A   Clear
9:53 PM 46.0 °F - 39.9 °F 79% 29.98 in 10.0 mi Calm Calm - N/A   Clear
10:53 PM 44.1 °F - 39.9 °F 85% 29.98 in 10.0 mi Calm Calm - N/A   Clear
11:53 PM 43.0 °F - 39.9 °F 89% 29.98 in 10.0 mi Calm Calm - N/A   Clear